Flag for Netherlands Weather past 2 weeks in Utrecht, Netherlands

Now
61 °F

Passing clouds.


Feels Like: 61 °F
Forecast: 59 / 71 °F
Wind: 6 mph from Southeast

Location: Amsterdam Schiphol Airport

Current Time: Aug 3, 2015 at 6:52:13 AM

Latest Report: Aug 3, 2015 at 5:55 AM


Visibility: N/A

Pressure: 29.92 "Hg

Humidity: 68%

Dew point: 50 °F

Location of UtrechtLocation

Historic Weather in Utrecht — Graph

°F

Utrecht temperature yesterday

Maximum temperature yesterday: 75 °F (at 2:55 PM)
Minimum temperature yesterday: 52 °F (at 4:25 AM)
Average temperature yesterday: 64 °F

Past Weeks' High & Low Weather Summary

 TemperatureHumidityPressure
High75 °F (Jul 21, 3:55 PM)100% (Jul 19, 10:55 AM)30.15 "Hg (Jul 19, 10:55 AM)
Low46 °F (Jul 31, 3:55 AM)38% (Aug 1, 12:25 PM)29.36 "Hg (Jul 25, 9:55 AM)
Average62 °F74%29.86 "Hg
* Reported Jul 19 5:25 AM — Aug 3 5:25 AM, Utrecht, Weather by CustomWeather, © 2015

Note: Actual official high and low records may vary slightly from our data, if they occured in-between our weather recording intervals... More about our weather records

Advertising

Utrecht weather history for previous 24 hours

 ConditionsComfort  
Time TempWeatherWind HumidityBarometerVisibility
5:25 AM
Mon, Aug 3
59 °FPassing clouds.5 mph72%29.92 "HgN/A
4:55 AM59 °FClear.7 mph72%29.95 "Hg10 mi
4:25 AM61 °FClear.8 mph68%29.95 "Hg10 mi
3:55 AM61 °FClear.7 mph68%29.95 "Hg10 mi
3:25 AM61 °FClear.8 mph68%29.95 "Hg10 mi
2:55 AM61 °FClear.7 mph68%29.98 "Hg10 mi
2:25 AM61 °FClear.7 mph72%29.98 "Hg10 mi
1:55 AM63 °FClear.9 mph68%29.98 "Hg10 mi
1:25 AM64 °FClear.10 mph64%30.01 "Hg10 mi
12:55 AM64 °FClear.10 mph64%30.01 "Hg10 mi
12:25 AM64 °FClear.9 mph64%30.01 "Hg10 mi
11:55 PM
Sun, Aug 2
64 °FClear.9 mph64%30.01 "Hg10 mi
11:25 PM64 °FClear.9 mph68%30.04 "Hg10 mi
10:55 PM64 °FClear.8 mph73%30.04 "Hg10 mi
10:25 PM64 °FSunny.8 mph78%30.04 "Hg10 mi
9:55 PM63 °FSunny.7 mph77%30.04 "Hg10 mi
9:25 PM64 °FSunny.6 mph73%30.04 "Hg10 mi
8:55 PM68 °FSunny.7 mph64%30.04 "Hg10 mi
8:25 PM70 °FSunny.8 mph60%30.04 "Hg10 mi
7:55 PM72 °FPassing clouds.8 mph57%30.04 "HgN/A
7:25 PM73 °FSunny.9 mph50%30.04 "Hg10 mi
6:55 PM75 °FPassing clouds.10 mph47%30.07 "HgN/A
6:25 PM73 °FPassing clouds.8 mph50%30.07 "HgN/A
5:55 PM75 °FPassing clouds.9 mph47%30.07 "HgN/A
5:25 PM75 °FPassing clouds.5 mph47%30.07 "HgN/A
4:55 PM73 °FPassing clouds.7 mph50%30.09 "HgN/A
4:25 PM75 °FPassing clouds.8 mph47%30.09 "HgN/A
3:55 PM73 °FPassing clouds.9 mph47%30.09 "HgN/A
3:25 PM73 °FPassing clouds.9 mph44%30.09 "HgN/A
2:55 PM75 °FPassing clouds.8 mph47%30.12 "HgN/A
2:25 PM72 °FPassing clouds.9 mph50%30.12 "HgN/A
1:55 PM72 °FPassing clouds.7 mph47%30.12 "HgN/A
1:25 PM72 °FPassing clouds.7 mph50%30.12 "HgN/A
12:55 PM72 °FPassing clouds.8 mph50%30.12 "HgN/A
12:25 PM70 °FPassing clouds.9 mph53%30.12 "HgN/A
11:55 AM70 °FPassing clouds.7 mph53%30.12 "HgN/A
11:25 AM68 °FPassing clouds.8 mph56%30.12 "HgN/A
10:55 AM68 °FPassing clouds.8 mph53%30.12 "HgN/A
10:25 AM66 °FPassing clouds.6 mph73%30.12 "HgN/A
9:55 AM66 °FPassing clouds.6 mph73%30.12 "HgN/A
9:25 AM63 °FPassing clouds.6 mph83%30.12 "HgN/A
8:55 AM61 °FPassing clouds.6 mph83%30.12 "HgN/A
8:25 AM59 °FPassing clouds.6 mph82%30.12 "HgN/A
7:55 AM57 °FSunny.6 mph88%30.09 "Hg10 mi
7:25 AM55 °FSunny.6 mph88%30.09 "Hg10 mi
6:55 AM54 °FClear.6 mph88%30.09 "Hg10 mi
6:25 AM52 °FClear.6 mph88%30.09 "Hg10 mi
Weather by CustomWeather, © 2015

See weather overviewHow to use our weather pages